Total_Precipitation_Accumulation
1.02 1.01 0.92 0.93 0.84 0.82 0.92 0.99 1.01 1.03 0.93 0.79 0.73 0.73 0.78 0.71 0.69 0.80 1.06 1.39 1.84 2.22 2.35 2.19 2.01 1.95 1.96 1.89 2.10 2.30 2.52 2.64 2.46 2.30 2.06 1.93 2.11 2.23 1.90 1.79 1.77 1.78 1.93
1.03 1.06 1.00 0.96 0.92 0.85 0.90 1.09 1.05 1.08 1.04 0.94 0.79 0.77 0.79 0.74 0.71 0.76 0.90 1.19 1.43 1.70 2.09 2.35 2.21 2.04 1.94 1.89 1.91 2.06 2.39 2.45 2.19 2.09 2.04 1.96 2.19 2.28 1.97 1.81 1.70 1.59 1.79
0.94 0.99 0.99 0.92 0.92 0.94 0.96 1.04 1.06 1.10 1.00 0.93 0.91 0.84 0.79 0.75 0.66 0.75 0.76 0.88 0.93 1.16 1.53 1.91 2.16 2.14 2.08 2.07 2.01 2.12 2.37 2.30 2.04 2.03 2.13 2.10 2.06 2.12 2.06 1.88 1.71 1.59 1.65
1.01 1.01 1.04 1.01 1.05 1.09 1.08 1.11 1.17 1.16 1.09 1.10 1.08 1.03 0.85 0.85 0.75 0.76 0.76 0.79 0.85 0.82 0.98 1.18 1.49 1.77 2.02 2.18 2.32 2.49 2.41 2.22 2.02 2.00 2.09 1.98 1.88 1.98 2.03 1.94 1.70 1.55 1.51
1.04 1.15 1.20 1.23 1.19 1.22 1.24 1.21 1.24 1.15 1.15 1.18 1.11 1.11 0.99 0.94 0.88 0.75 0.82 0.85 0.85 0.79 0.83 0.75 0.83 1.00 1.33 1.75 2.31 2.61 2.31 2.16 2.05 1.88 1.85 1.81 1.84 1.96 1.98 1.79 1.61 1.48 1.44
1.33 1.50 1.59 1.50 1.49 1.50 1.49 1.46 1.52 1.40 1.27 1.30 1.18 1.14 1.03 0.90 0.95 0.92 0.88 0.88 0.92 0.88 0.82 0.72 0.69 0.59 0.73 1.14 1.81 2.26 2.22 2.15 2.02 1.93 1.81 1.76 1.83 1.94 1.92 1.77 1.63 1.61 1.56
1.69 1.83 1.77 1.86 1.87 1.75 1.77 1.84 1.89 1.84 1.63 1.47 1.53 1.41 1.13 0.88 0.94 0.91 0.86 0.90 0.95 1.06 1.08 0.95 0.82 0.73 0.68 0.79 1.20 1.73 2.11 2.16 2.18 2.02 1.90 1.88 1.84 1.86 1.88 1.85 1.83 1.77 1.73
1.91 1.96 2.04 2.14 2.18 2.18 2.14 2.03 2.16 2.31 2.03 1.75 1.85 2.14 1.75 1.34 0.97 0.76 0.83 0.86 0.96 1.20 1.27 1.09 0.90 0.82 0.81 0.89 0.82 1.09 1.53 1.96 2.16 2.16 2.08 2.02 2.01 2.03 2.06 1.92 1.81 1.79 1.79
2.14 2.17 2.22 2.29 2.32 2.17 2.17 2.28 2.42 2.76 2.56 2.18 1.97 2.22 2.07 1.75 1.42 0.98 0.87 0.91 0.99 1.17 1.29 1.31 1.19 1.12 1.03 1.05 1.01 0.83 1.02 1.44 1.84 2.16 2.27 2.26 2.14 2.34 2.54 2.29 1.92 1.75 1.63
2.08 2.19 2.20 2.20 2.17 2.11 2.19 2.26 2.32 2.73 2.93 2.64 2.29 1.90 1.69 1.65 1.73 1.45 1.05 0.99 1.06 1.07 1.19 1.27 1.22 1.28 1.26 1.27 1.25 0.99 0.92 1.15 1.48 1.96 2.36 2.68 2.49 2.32 2.36 2.42 2.21 1.87 1.60
1.94 1.98 2.00 2.09 2.11 2.16 2.21 2.37 2.50 2.77 2.80 2.79 2.61 2.39 2.17 1.85 1.51 1.57 1.52 1.24 1.18 1.08 1.17 1.30 1.35 1.42 1.45 1.47 1.59 1.32 1.03 0.93 1.13 1.57 2.12 2.65 2.81 2.56 2.36 2.31 2.25 2.07 1.77
1.92 1.85 1.82 1.89 2.03 2.18 2.23 2.32 2.48 2.72 2.83 2.91 2.82 2.55 2.46 2.29 2.00 1.87 1.61 1.46 1.45 1.24 1.20 1.24 1.28 1.42 1.56 1.64 1.59 1.70 1.37 0.98 0.88 1.15 1.52 2.05 2.68 2.89 2.73 2.61 2.51 2.41 2.18
1.64 1.68 1.76 1.84 1.98 2.08 2.15 2.27 2.42 2.47 2.59 2.82 2.82 2.64 2.44 2.25 2.23 2.10 1.98 1.66 1.48 1.30 1.28 1.28 1.23 1.29 1.31 1.59 1.71 1.78 1.46 1.13 0.86 0.87 1.05 1.31 1.82 2.41 2.71 2.73 2.72 2.83 2.77
1.55 1.51 1.55 1.63 1.84 2.03 2.11 2.21 2.23 2.20 2.26 2.44 2.43 2.49 2.47 2.20 2.15 2.04 2.02 2.09 1.82 1.62 1.45 1.26 1.14 1.18 1.23 1.43 1.73 1.81 1.39 1.22 0.98 0.85 0.88 1.09 1.26 1.46 1.82 2.34 2.67 2.87 3.05
1.35 1.31 1.35 1.38 1.48 1.70 1.94 2.10 2.06 1.97 1.94 2.09 2.16 2.25 2.37 2.40 2.31 2.20 2.16 2.21 2.16 1.91 1.72 1.49 1.25 1.12 1.19 1.31 1.72 1.64 1.44 1.29 1.18 1.00 0.90 0.97 1.01 1.13 1.23 1.52 1.85 2.04 2.24
1.13 1.12 1.13 1.20 1.34 1.45 1.65 1.87 1.97 1.90 1.88 1.94 2.05 2.18 2.30 2.40 2.45 2.25 2.20 2.17 2.03 1.95 1.80 1.49 1.25 1.15 1.22 1.21 1.57 1.58 1.53 1.53 1.32 1.16 1.06 1.04 1.08 1.06 1.06 1.17 1.27 1.32 1.30
0.91 0.94 1.12 1.18 1.24 1.32 1.52 1.79 1.96 1.97 1.89 1.89 1.86 1.94 2.11 2.20 2.41 2.37 2.28 2.17 2.04 1.88 1.75 1.58 1.36 1.21 1.26 1.31 1.42 1.51 1.51 1.41 1.24 1.21 1.08 1.04 1.04 1.06 1.04 1.08 1.20 1.14 1.04
0.67 0.79 0.92 0.97 1.03 1.07 1.25 1.54 1.74 1.79 1.77 1.68 1.65 1.77 1.98 2.15 2.36 2.44 2.39 2.24 2.15 2.02 1.91 1.84 1.67 1.46 1.34 1.38 1.52 1.61 1.57 1.49 1.41 1.43 1.29 1.16 1.09 1.04 1.04 1.03 1.07 1.14 1.09
0.69 0.80 0.89 0.94 0.97 1.03 1.07 1.17 1.33 1.46 1.45 1.40 1.43 1.49 1.54 1.74 2.02 2.18 2.19 2.21 2.24 2.22 2.20 2.05 1.85 1.73 1.58 1.46 1.57 1.62 1.59 1.63 1.50 1.52 1.49 1.39 1.32 1.25 1.16 1.10 1.07 1.08 1.12
0.65 0.74 0.82 0.88 0.95 1.00 1.01 1.02 1.04 1.11 1.13 1.19 1.25 1.28 1.32 1.38 1.61 1.78 1.86 2.04 2.27 2.29 2.32 2.24 2.02 1.86 1.74 1.60 1.67 1.79 1.85 1.81 1.66 1.47 1.44 1.37 1.41 1.37 1.27 1.11 1.02 1.01 1.05
0.57 0.65 0.72 0.74 0.79 0.88 0.97 1.00 0.87 0.83 0.93 1.04 1.06 1.01 1.04 1.13 1.26 1.37 1.43 1.78 2.13 2.31 2.30 2.25 2.10 2.00 1.78 1.65 1.52 1.54 1.74 1.98 1.96 1.87 1.74 1.47 1.40 1.32 1.26 1.22 1.10 1.02 1.01
0.55 0.60 0.57 0.61 0.71 0.75 0.91 0.90 0.74 0.72 0.77 0.87 0.96 0.94 0.83 0.81 0.86 0.95 1.03 1.20 1.48 1.73 2.01 2.20 2.11 1.91 1.70 1.61 1.58 1.60 1.65 1.79 1.96 1.85 1.87 1.84 1.74 1.67 1.56 1.42 1.40 1.29 1.18
0.51 0.53 0.51 0.51 0.56 0.70 0.75 0.62 0.61 0.65 0.71 0.77 0.83 0.89 0.81 0.70 0.77 0.82 0.92 1.00 1.01 1.09 1.38 1.74 1.85 1.78 1.85 1.74 1.72 1.66 1.64 1.72 1.79 1.76 1.91 1.94 1.89 1.84 1.75 1.73 1.80 1.62 1.43
0.59 0.58 0.60 0.57 0.55 0.61 0.61 0.50 0.55 0.57 0.63 0.68 0.77 0.86 0.91 0.84 0.83 0.94 0.94 0.97 0.92 0.88 1.10 1.12 1.28 1.56 1.73 1.82 1.80 1.90 2.05 2.01 1.88 1.77 1.75 1.78 1.68 1.67 1.68 1.68 1.79 1.70 1.56
0.57 0.61 0.64 0.64 0.57 0.55 0.58 0.49 0.51 0.56 0.61 0.66 0.68 0.75 0.83 0.81 0.95 1.05 1.04 1.16 1.14 1.02 1.15 1.22 1.26 1.31 1.42 1.57 1.69 1.77 1.85 1.92 1.90 1.81 1.63 1.49 1.44 1.43 1.47 1.48 1.50 1.57 1.54
0.36 0.46 0.49 0.51 0.55 0.53 0.67 0.56 0.55 0.57 0.65 0.74 0.77 0.75 0.89 0.90 1.00 0.98 0.95 1.18 1.20 1.08 1.00 1.06 1.07 1.06 1.00 1.11 1.33 1.48 1.69 1.80 1.77 1.69 1.45 1.31 1.29 1.32 1.31 1.16 1.07 1.11 1.12